Hourly Weather Roundup
Issued by NWS Central Illinois

Home | Current Version | Previous Version | Text Only | Print | Product List | Glossary On
Versions: 1 2 3 4 5 6 7 8 9 10 11 12 13 14 15 16 17 18 19 20 21 22 23 24 25 26 27 28 29 30 31 32 33 34 35 36 37 38 39 40 41 42 43 44 45 46 47 48 49 50
000
NZUS43 KILX 241510
HWRILX

AREA WEATHER ROUNDUP
NATIONAL WEATHER SERVICE, LINCOLN IL
1000 AM CDT SUN MAY 24 2015


CITY           SKY/WX    TMP DP  RH WIND       PRES   REMARKS
BLOOMINGTON    PTSUNNY   76  59  55 S16       30.11F
CHAMPAIGN      MOSUNNY   80  56  43 S18G24    30.13F HX  80
DANVILLE       PTSUNNY   75  56  51 S13       30.13F
DECATUR        MOSUNNY   78  59  51 S16G23    30.10F
EFFINGHAM      PTSUNNY   76  55  48 SE12G21   30.14F
FLORA          MOSUNNY   76  58  53 S17       30.14F
GALESBURG      CLOUDY    64  57  79 E8        30.04F
JACKSONVILLE   PTSUNNY   77  61  57 SE14G20   30.04F
LACON          CLOUDY    68  56  65 SE6       30.08F
LAWRENCEVILLE  MOSUNNY   78  57  48 S15       30.17F
LITCHFIELD     PTSUNNY   71  60  67 SE13      30.08F
$$


CITY           SKY/WX    TMP DP  RH WIND       PRES   REMARKS
LINCOLN        CLOUDY    76  56  51 S13       30.06F
MACOMB         CLOUDY    67  57  71 SE14      30.04F
MATTOON        SUNNY     75  59  57 S14       30.13F
MT CARMEL AP   MOSUNNY   79  52  38 S15       30.16F
OLNEY-NOBLE AP MOSUNNY   75  59  57 S12G20    30.15F
PARIS          PTSUNNY   77  57  50 S14       30.16F
PEORIA         CLOUDY    72  56  57 SE5       30.07F
PONTIAC        CLOUDY    75  55  49 SE13      30.12F
RANTOUL        PTSUNNY   80  57  45 S21       30.13F HX  80
ROBINSON       MOSUNNY   76  56  48 S14       30.18F
SPRINGFIELD    CLOUDY    78  59  51 SE17G24   30.06F
TAYLORVILLE    PTSUNNY   73  59  60 S14       30.08F
$$

...REGIONAL REPORTS...


CITY           SKY/WX    TMP DP  RH WIND       PRES   REMARKS
CHICAGO O`HARE CLOUDY    66  54  65 SE7       30.15F
KANKAKEE       CLOUDY    72  54  54 SE8       30.14F
MOLINE         CLOUDY    61  56  83 E10       30.05F
MOUNT VERNON   PTSUNNY   79  63  57 S12G17    30.13F HX  80
PITTSFIELD     PTSUNNY   74  59  59 SE16      30.03F
QUINCY         CLOUDY    71  58  63 SE15G22   29.98F
ROCKFORD       LGT RAIN  62  56  80 NE6       30.15F
$$


CITY           SKY/WX    TMP DP  RH WIND       PRES   REMARKS
BURLINGTON     CLOUDY    64  59  83 SE10      29.99F
CEDAR RAPIDS   HVY RAIN  59  59 100 E15       30.00F FOG
DES MOINES     LGT RAIN  62  59  90 SE14G22   29.89F FOG
KIRKSVILLE     LGT RAIN  65  62  90 SE15G23   29.94F
OTTUMWA        LGT RAIN  62  60  93 E16G23    29.94F
ST LOUIS       PTSUNNY   76  61  59 SE18G24   30.05F
$$


CITY           SKY/WX    TMP DP  RH WIND       PRES   REMARKS
TERRE HAUTE    MOSUNNY   75  58  55 S12       30.18F
EVANSVILLE     MOSUNNY   76  56  49 S14       30.19F
INDIANAPOLIS   PTSUNNY   73  53  49 S13       30.20F
LAFAYETTE      CLOUDY    73  56  54 S6        30.17F
MADISON        LGT RAIN  61  54  77 S3        30.16R
MILWAUKEE      LGT RAIN  65  52  62 SW7       30.18R
$$




USA.gov is the U.S. government's official web portal to all federal, state and local government web resources and services.